ANE1150 LEMD-LPPR

Flight info

Callsign ANE1150
Flight time 0h 46m
Altitude 30000
Route BARDI DCT RIVRO DCT PESUL
Aircraft CRJX/M-SDFGIRWY/S

Departure

Time 2026-05-07 20:41
Airport Adolfo Suárez Madrid–Barajas Airport (LEMD)

Arrival

Time 2026-05-07 21:28
Airport Francisco de Sá Carneiro Airport (LPPR)
Time Latitude Longitude Altitude Speed Heading
2026-05-07 20:33 40.49702 -3.58999 1948 ft 0 kts 182°
2026-05-07 20:36 40.49715 -3.58998 1948 ft 4 kts 181°
2026-05-07 20:37 40.49736 -3.58999 1948 ft 4 kts 170°
2026-05-07 20:37 40.49748 -3.59008 1948 ft 4 kts 97°
2026-05-07 20:37 40.49749 -3.59035 1948 ft 0 kts 90°
2026-05-07 20:38 40.49749 -3.58991 1948 ft 11 kts 90°
2026-05-07 20:38 40.49749 -3.58886 1947 ft 12 kts 90°
2026-05-07 20:38 40.49736 -3.58786 1946 ft 10 kts 93°
2026-05-07 20:39 40.49736 -3.58644 1944 ft 22 kts 90°
2026-05-07 20:39 40.49736 -3.58389 1941 ft 34 kts 90°
2026-05-07 20:39 40.49740 -3.58054 1935 ft 21 kts 88°
2026-05-07 20:39 40.49737 -3.57862 1932 ft 24 kts 89°
2026-05-07 20:40 40.49793 -3.57654 1930 ft 25 kts 34°
2026-05-07 20:40 40.49956 -3.57533 1932 ft 34 kts 26°
2026-05-07 20:40 40.50306 -3.57468 1938 ft 78 kts 359°
2026-05-07 20:40 40.51065 -3.57474 1951 ft 138 kts 360°
2026-05-07 20:41 40.52182 -3.57476 2031 ft 177 kts
2026-05-07 20:41 40.53477 -3.57454 2398 ft 202 kts
2026-05-07 20:41 40.54970 -3.57435 2583 ft 233 kts
2026-05-07 20:41 40.56664 -3.57424 3213 ft 252 kts 359°
2026-05-07 20:42 40.58455 -3.57506 3976 ft 269 kts 358°
2026-05-07 20:42 40.60417 -3.57412 4382 ft 296 kts 14°
2026-05-07 20:42 40.62379 -3.56377 5003 ft 313 kts 27°
2026-05-07 20:42 40.64445 -3.55324 5697 ft 326 kts
2026-05-07 20:43 40.66719 -3.55591 6404 ft 335 kts 339°
2026-05-07 20:43 40.68610 -3.57144 6846 ft 312 kts 313°
2026-05-07 20:43 40.69615 -3.59393 7146 ft 295 kts 283°
2026-05-07 20:43 40.69919 -3.61988 7531 ft 280 kts 272°
2026-05-07 20:44 40.69714 -3.64513 8202 ft 273 kts 258°
2026-05-07 20:44 40.69369 -3.66938 9319 ft 259 kts 258°
2026-05-07 20:44 40.69137 -3.69074 10367 ft 253 kts 264°
2026-05-07 20:44 40.69092 -3.71372 10619 ft 273 kts 268°
2026-05-07 20:45 40.69134 -3.73963 10900 ft 292 kts 270°
2026-05-07 20:45 40.69182 -3.76716 11260 ft 307 kts 269°
2026-05-07 20:45 40.69168 -3.79572 11829 ft 314 kts 267°
2026-05-07 20:45 40.69086 -3.82468 12509 ft 318 kts 265°
2026-05-07 20:46 40.68987 -3.85392 13205 ft 321 kts 265°
2026-05-07 20:46 40.68890 -3.88241 13844 ft 324 kts 265°
2026-05-07 20:46 40.68784 -3.91233 14430 ft 328 kts 265°
2026-05-07 20:46 40.68683 -3.94238 15030 ft 331 kts 266°
2026-05-07 20:47 40.68580 -3.97281 15630 ft 333 kts 266°
2026-05-07 20:47 40.68479 -4.00337 16264 ft 335 kts 266°
2026-05-07 20:47 40.68375 -4.03413 16868 ft 337 kts 266°
2026-05-07 20:47 40.68272 -4.06318 17401 ft 339 kts 266°
2026-05-07 20:48 40.68165 -4.09436 17941 ft 343 kts 266°
2026-05-07 20:48 40.68057 -4.12581 18458 ft 345 kts 266°
2026-05-07 20:48 40.67942 -4.15754 18924 ft 348 kts 266°
2026-05-07 20:48 40.67830 -4.18931 19470 ft 347 kts 267°
2026-05-07 20:49 40.67719 -4.22108 19945 ft 349 kts 267°
2026-05-07 20:49 40.67604 -4.25312 20426 ft 351 kts 268°
2026-05-07 20:49 40.67486 -4.28521 20917 ft 351 kts 268°
2026-05-07 20:49 40.67369 -4.31743 21394 ft 353 kts 268°
2026-05-07 20:50 40.67250 -4.34975 21878 ft 354 kts 268°
2026-05-07 20:50 40.67130 -4.38215 22346 ft 355 kts 269°
2026-05-07 20:50 40.67014 -4.41279 22779 ft 356 kts 269°
2026-05-07 20:50 40.66893 -4.44536 23223 ft 357 kts 269°
2026-05-07 20:51 40.66768 -4.47815 23636 ft 358 kts 269°
2026-05-07 20:51 40.66643 -4.51096 24012 ft 358 kts 269°
2026-05-07 20:51 40.66516 -4.54377 24374 ft 359 kts 269°
2026-05-07 20:51 40.66389 -4.57661 24732 ft 359 kts 269°
2026-05-07 20:52 40.66262 -4.60956 25035 ft 361 kts 268°
2026-05-07 20:52 40.66132 -4.64265 25370 ft 362 kts 268°
2026-05-07 20:52 40.66001 -4.67576 25694 ft 362 kts 268°
2026-05-07 20:52 40.65870 -4.70895 26023 ft 363 kts 268°
2026-05-07 20:53 40.65736 -4.74211 26331 ft 364 kts 268°
2026-05-07 20:53 40.65608 -4.77351 26611 ft 365 kts 268°
2026-05-07 20:53 40.65474 -4.80646 26887 ft 366 kts 268°
2026-05-07 20:53 40.65338 -4.83998 27181 ft 366 kts 268°
2026-05-07 20:54 40.65200 -4.87352 27457 ft 367 kts 268°
2026-05-07 20:54 40.65058 -4.90712 27721 ft 368 kts 268°
2026-05-07 20:54 40.64918 -4.94083 27992 ft 368 kts 268°
2026-05-07 20:54 40.64779 -4.97467 28167 ft 372 kts 267°
2026-05-07 20:55 40.64632 -5.00878 28363 ft 374 kts 267°
2026-05-07 20:55 40.64486 -5.04300 28614 ft 374 kts 266°
2026-05-07 20:55 40.64339 -5.07726 28854 ft 375 kts 266°
2026-05-07 20:55 40.64199 -5.10948 29072 ft 376 kts 267°
2026-05-07 20:56 40.64049 -5.14391 29300 ft 377 kts 266°
2026-05-07 20:56 40.63899 -5.17806 29536 ft 378 kts 266°
2026-05-07 20:56 40.63747 -5.21266 29763 ft 378 kts 266°
2026-05-07 20:56 40.63593 -5.24737 29873 ft 382 kts 266°
2026-05-07 20:57 40.63436 -5.28247 29919 ft 386 kts 266°
2026-05-07 20:57 40.63112 -5.35390 29939 ft 395 kts 266°
2026-05-07 20:58 40.62776 -5.42697 29949 ft 404 kts 266°
2026-05-07 20:58 40.62440 -5.49925 29945 ft 411 kts 266°
2026-05-07 20:59 40.62084 -5.57473 29943 ft 418 kts 266°
2026-05-07 20:59 40.61717 -5.65173 29931 ft 424 kts 266°
2026-05-07 21:00 40.61338 -5.72976 29928 ft 429 kts 265°
2026-05-07 21:00 40.60959 -5.80672 29931 ft 434 kts 265°
2026-05-07 21:01 40.60565 -5.88599 29924 ft 438 kts 265°
2026-05-07 21:01 40.60162 -5.96576 29913 ft 441 kts 265°
2026-05-07 21:02 40.59749 -6.04643 29917 ft 443 kts 265°
2026-05-07 21:02 40.59329 -6.12750 29916 ft 445 kts 265°
2026-05-07 21:03 40.58912 -6.20655 29915 ft 447 kts 265°
2026-05-07 21:03 40.58546 -6.27496 29912 ft 448 kts 265°
2026-05-07 21:04 40.58747 -6.35618 29905 ft 453 kts 284°
2026-05-07 21:04 40.60832 -6.43430 29926 ft 451 kts 277°
2026-05-07 21:05 40.61884 -6.51307 29931 ft 453 kts 281°
2026-05-07 21:05 40.63416 -6.59375 29919 ft 455 kts 280°
2026-05-07 21:06 40.64728 -6.67531 29913 ft 456 kts 279°
2026-05-07 21:06 40.66109 -6.75701 29912 ft 457 kts 280°
2026-05-07 21:07 40.67481 -6.83883 29914 ft 458 kts 280°
2026-05-07 21:07 40.68800 -6.91708 29912 ft 432 kts 280°
2026-05-07 21:07 40.69405 -6.95303 29880 ft 408 kts 279°
2026-05-07 21:08 40.70006 -6.98842 29722 ft 384 kts 280°
2026-05-07 21:08 40.70591 -7.02173 29407 ft 363 kts 279°
2026-05-07 21:08 40.71127 -7.05337 29025 ft 346 kts 278°
2026-05-07 21:08 40.71629 -7.08376 28602 ft 333 kts 278°
2026-05-07 21:09 40.72115 -7.11308 28158 ft 323 kts 278°
2026-05-07 21:09 40.72587 -7.14164 27690 ft 314 kts 278°
2026-05-07 21:09 40.73041 -7.16916 27218 ft 308 kts 278°
2026-05-07 21:09 40.73491 -7.19649 26734 ft 303 kts 278°
2026-05-07 21:10 40.73890 -7.22069 26326 ft 299 kts 278°
2026-05-07 21:10 40.74329 -7.24734 25853 ft 296 kts 277°
2026-05-07 21:10 40.74763 -7.27382 25377 ft 293 kts 277°
2026-05-07 21:10 40.75191 -7.29999 24909 ft 291 kts 277°
2026-05-07 21:11 40.75617 -7.32605 24453 ft 289 kts 277°
2026-05-07 21:11 40.76038 -7.35187 24017 ft 288 kts 277°
2026-05-07 21:11 40.76883 -7.40387 23080 ft 297 kts 277°
2026-05-07 21:12 40.77323 -7.43119 22590 ft 311 kts 277°
2026-05-07 21:12 40.77786 -7.45973 22134 ft 324 kts 277°
2026-05-07 21:12 40.78267 -7.48935 21676 ft 336 kts 278°
2026-05-07 21:12 40.78765 -7.52001 21224 ft 346 kts 278°
2026-05-07 21:13 40.79275 -7.55149 20765 ft 356 kts 278°
2026-05-07 21:13 40.79766 -7.58206 20349 ft 364 kts 278°
2026-05-07 21:13 40.80297 -7.61508 19926 ft 371 kts 278°
2026-05-07 21:13 40.80837 -7.64877 19476 ft 378 kts 278°
2026-05-07 21:14 40.81382 -7.68303 19036 ft 384 kts 278°
2026-05-07 21:14 40.81944 -7.71786 18593 ft 390 kts 278°
2026-05-07 21:14 40.82504 -7.75308 18147 ft 395 kts 279°
2026-05-07 21:14 40.83076 -7.78876 17653 ft 399 kts 279°
2026-05-07 21:15 40.83644 -7.82470 17137 ft 402 kts 279°
2026-05-07 21:15 40.84214 -7.86048 16643 ft 405 kts 278°
2026-05-07 21:15 40.84798 -7.89754 16112 ft 408 kts 279°
2026-05-07 21:15 40.85342 -7.93169 15625 ft 410 kts 279°
2026-05-07 21:16 40.85921 -7.96870 15118 ft 412 kts 279°
2026-05-07 21:16 40.86507 -8.00579 14612 ft 414 kts 279°
2026-05-07 21:16 40.87092 -8.04314 14109 ft 414 kts 278°
2026-05-07 21:16 40.87671 -8.07990 13606 ft 406 kts 278°
2026-05-07 21:17 40.88239 -8.11647 13018 ft 402 kts 279°
2026-05-07 21:17 40.88869 -8.15155 12452 ft 383 kts 282°
2026-05-07 21:17 40.89579 -8.18481 11907 ft 368 kts 283°
2026-05-07 21:17 40.90283 -8.21678 11513 ft 353 kts 282°
2026-05-07 21:18 40.90953 -8.24715 11356 ft 336 kts 282°
2026-05-07 21:18 40.91529 -8.27438 10954 ft 321 kts 281°
2026-05-07 21:18 40.92105 -8.30223 10537 ft 308 kts 281°
2026-05-07 21:18 40.92659 -8.32918 10107 ft 300 kts 281°
2026-05-07 21:19 40.93201 -8.35566 9520 ft 297 kts 280°
2026-05-07 21:19 40.93734 -8.38184 8933 ft 293 kts 280°
2026-05-07 21:19 40.94262 -8.40768 8342 ft 289 kts 281°
2026-05-07 21:19 40.94790 -8.43316 7759 ft 285 kts 281°
2026-05-07 21:20 40.95304 -8.45826 7165 ft 281 kts 281°
2026-05-07 21:20 40.95790 -8.48208 6624 ft 278 kts 281°
2026-05-07 21:20 40.96292 -8.50659 6022 ft 274 kts 281°
2026-05-07 21:20 40.96784 -8.53074 5381 ft 271 kts 282°
2026-05-07 21:21 40.97258 -8.55471 4745 ft 268 kts 282°
2026-05-07 21:21 40.97716 -8.57843 4075 ft 265 kts 284°
2026-05-07 21:21 40.98516 -8.59895 3977 ft 243 kts 316°
2026-05-07 21:21 40.99781 -8.61035 3953 ft 222 kts 330°
2026-05-07 21:22 41.01071 -8.61870 3878 ft 206 kts 339°
2026-05-07 21:22 41.02403 -8.62403 3750 ft 194 kts 347°
2026-05-07 21:22 41.03704 -8.62753 3466 ft 192 kts 349°
2026-05-07 21:22 41.05018 -8.63061 3185 ft 189 kts 350°
2026-05-07 21:23 41.06259 -8.63358 3053 ft 177 kts 350°
2026-05-07 21:23 41.07412 -8.63637 3014 ft 158 kts 350°
2026-05-07 21:23 41.08450 -8.63888 2798 ft 150 kts 350°
2026-05-07 21:23 41.09522 -8.64146 2302 ft 162 kts 349°
2026-05-07 21:24 41.10615 -8.64415 2048 ft 154 kts 349°
2026-05-07 21:24 41.11630 -8.64664 1777 ft 136 kts 349°
2026-05-07 21:24 41.12447 -8.64878 1637 ft 115 kts 349°
2026-05-07 21:24 41.13262 -8.65090 1291 ft 121 kts 349°
2026-05-07 21:25 41.14056 -8.65306 1104 ft 113 kts 348°
2026-05-07 21:25 41.14839 -8.65524 830 ft 118 kts 348°
2026-05-07 21:25 41.15658 -8.65750 905 ft 122 kts 347°
2026-05-07 21:25 41.16495 -8.65999 1070 ft 126 kts 347°
2026-05-07 21:26 41.17388 -8.66213 1288 ft 132 kts 350°
2026-05-07 21:26 41.18325 -8.66441 1329 ft 148 kts 349°
2026-05-07 21:26 41.19414 -8.66713 1085 ft 160 kts 349°
2026-05-07 21:26 41.20483 -8.67012 753 ft 157 kts 347°
2026-05-07 21:27 41.21514 -8.67253 578 ft 148 kts 349°
2026-05-07 21:27 41.22472 -8.67516 407 ft 147 kts 349°
2026-05-07 21:27 41.23437 -8.67767 259 ft 136 kts 349°
2026-05-07 21:27 41.24226 -8.67974 212 ft 92 kts 347°
2026-05-07 21:28 41.24724 -8.68106 208 ft 57 kts 349°
2026-05-07 21:28 41.25066 -8.68171 185 ft 47 kts
2026-05-07 21:28 41.25275 -8.68099 177 ft 11 kts 43°
2026-05-07 21:28 41.25292 -8.68057 178 ft 0 kts 92°
2026-05-07 21:29 41.25291 -8.68051 178 ft 4 kts 113°
2026-05-07 21:29 41.25189 -8.67993 196 ft 29 kts 169°
2026-05-07 21:29 41.24950 -8.67932 193 ft 35 kts 167°
2026-05-07 21:29 41.24748 -8.67824 209 ft 28 kts 164°
2026-05-07 21:30 41.24570 -8.67779 221 ft 24 kts 169°
2026-05-07 21:30 41.24424 -8.67741 222 ft 19 kts 169°
2026-05-07 21:30 41.24292 -8.67682 230 ft 22 kts 137°
2026-05-07 21:30 41.24207 -8.67539 237 ft 18 kts 132°
2026-05-07 21:31 41.24114 -8.67451 240 ft 16 kts 157°
2026-05-07 21:31 41.24053 -8.67423 240 ft 0 kts 137°
2026-05-07 21:31 41.24049 -8.67391 242 ft 5 kts 85°
2026-05-07 21:31 41.24052 -8.67356 243 ft 2 kts 79°
2026-05-07 21:32 41.24057 -8.67327 243 ft 6 kts 77°
2026-05-07 21:32 41.24058 -8.67325 243 ft 0 kts 77°